Tracking 29090 objects as of 15-Jul-2024
HD Live streaming from Space Station
objects crossing your sky now

STARLINK-3923

Track STARLINK-3923 now!
10-day predictions
STARLINK-3923 is classified as:


NORAD ID: 52489
Int'l Code: 2022-049AQ
Perigee: 546.0 km
Apogee: 547.9 km
Inclination: 53.2 °
Period: 95.4 minutes
Semi major axis: 6917 km
RCS: Unknown
Launch date: May 6, 2022
Source: United States (US)
Launch site: AIR FORCE EASTERN TEST RANGE (AFETR)
Your satellite tracking list
Your tracking list is empty




NASA's NSSDC Master Catalog

Two Line Element Set (TLE):
1 52489U 22049AQ  24197.16739967  .00001411  00000-0  10678-3 0  9998
2 52489  53.2166 243.9531 0001364  91.4436 268.6712 15.08830256121454
Source of the keplerian elements: AFSPC